Cosmos 1758 Rocket - Orbit

View from above orbital plane
View from above orbital plane
View from above satellite
View from above satellite

Ground track
Ground track

The orbit data is extracted from the following two-line orbital elements,

1 16792U 86046B   13168.49685193  .00000171  00000-0  18331-4 0  1804
2 16792 082.4834 136.0909 0025908 062.5022 048.2613 14.82233284458429
Epoch (UTC): 17 June 2013 11:55:28
Eccentricity: 0.0025908
inclination: 82.4834°
perigee height: 604 km
apogee height: 640 km
right ascension of ascending node: 136.0909°
argument of perigee: 62.5022°
revolutions per day: 14.82233284
mean anomaly at epoch: 48.2613°
orbit number at epoch: 45842

The dashed part of the orbit path shows where the satellite is in the earth's shadow,  

Developed and maintained by Chris Peat, Heavens-Above GmbH. Please read the updated FAQ before sending e-mail. Imprint. DLR